Погода в Тацинской

Россия / Ростовская область     48°11′33″N   41°16′59″E
темп.,
°C
ветер,
м/с
пор.,
м/с
влажн.,
%
обл.,
%
осадки,
мм/ч
давл.,
гПа
погр.,
м
17 мая, пн
пн1700:00+21вюв7184067 0.0 1008429
03:00+18вюв7184391 0.0 1007384
06:00+17вюв718535 0.0 1007412
09:00+23юв8164616 0.0 1008912
12:00+26юв9133926 0.0 10071324
15:00+28юв713370 0.0 10071952
18:00+27вюв35508 0.0 1005125
21:00+20ю116428 0.0 100713
18 мая, вт
вт1800:00+18юз3474100 0.0 100764
03:00+16з4885100 0.0 1008183
06:00+16зюз5990100 0.0 1009365
09:00+19з567188 0.0 1008600
12:00+20юз5666100 0.0 10091061
15:00+17ююв118986 1.3 1010154
18:00+19ююз4672100 0.1 1010372
21:00+16юз3483100 0.1 101059
19 мая, ср
ср1900:00+14юз33865 0.0 101036
03:00+13ю11853 0.0 100910
06:00+15юв22817 0.0 100975
09:00+20ююв3463100 0.0 1008789
12:00+17зюз8977100 1.2 1010825
15:00+14ююз4691100 2.8 1011429
18:00+17ююз4778100 0.2 1011834
21:00+13ююз4109189 0.5 1011268
20 мая, чт
чт2000:00+12ююз411945 0.0 1012324
03:00+11ююз5139782 0.1 1012438
06:00+12ююз61295100 1.4 1012693
09:00+15юз9127896 1.5 10121076
12:00+18юз8126590 0.4 10121623
15:00+20зюз695712 0.5 10131731
18:00+19юз5761100 0.0 1013667
21:00+14ююз3474100 0.0 101448
21 мая, пт
пт2100:00+13ююв22825 0.0 101414
03:00+12юв34875 0.0 101449
06:00+14вюв3108570 0.0 1014254
09:00+21юв6105434 0.0 1013688
12:00+23юв6851100 0.0 1013771
15:00+25юв7848100 0.0 1012863
18:00+25вюв355851 0.0 1011244
21:00+20в467274 0.0 101166